COSMOS 2236 (GLONASS)

Satellite information

Favourite Embed

Satellite Type and Status

PAYLOADIN ORBIT

Key statistics

Satellite COSMOS 2236 (GLONASS) at a glance.

Uptime

11987

Days in orbit

Revolutions

≈ 2.1

Per day

Orbit

MEO

Medium Earth Orbit

Inclination

64.8

Latest

Satellite identification and parameters

Extended collection of information and parameters for COSMOS 2236 (GLONASS).

Object identification

Identified? True

Debris? False

Object name: COSMOS 2236 (GLONASS)

International designator: 1993-010B

Object number (NORAD): 22513

Object ID (CCSDS): 22513

Country: COMMONWEALTH OF INDEPENDENT STATES (CIS)

Current information (Y/N): Y

RCS size: LARGE

Orbital parameters

Period: 675.725 minutes

Inclination: 64.7838 deg

SMA: 25507.828 km

Apoapsis: 19140.87 km

Periapsis: 19118.516 km

RAAN: 76.4266 deg

Eccentricy: 0.00043818

Argument of periapsis: 72.1596 deg

Mean anomaly: 288.5416 deg

Mean motion: 2.13104457 rev/day

Mean motion (dot): -0.00000033 rev/day2

B* drag term: 0.0 1/REarth

Two-line elements (TLE)

Creation date: Dec. 11, 2025, 10:54 a.m.

Reference frame: TEME

Reference center: EARTH

Epoch: Dec. 11, 2025, 3:01 a.m. UTC

TLE line 0: 0 COSMOS 2236 (GLONASS)

TLE line 1: 1 22513U 93010B 25345.12638875 -.00000033 00000-0 00000-0 0 9992

TLE line 2: 2 22513 64.7838 76.4266 0004382 72.1596 288.5416 2.13104457255372

Live tracking on map

Real-time ground track for satellite COSMOS 2236 (GLONASS).

In-orbit conjunctions

A list of the most updated potential collisions computed for object COSMOS 2236 (GLONASS).

Target Orbit TCA Probability of collision Miss distance Type
SL-12 R/B(2) MEO 2025-11-17 13:05:34 TBA 3547.0 (m) ROCKET BODY
SL-12 R/B(2) MEO 2025-05-23 21:18:08 TBA 1212.0 (m) ROCKET BODY

Associated space launch

GLONASS navigation satellites

COSMOS 2236 (GLONASS) was lifted into orbit during the mission ‘Proton | Uragan 51 to 53’, on board a Proton space rocket.

The launch took place on Feb. 17, 1993, 8:09 p.m. from 81/23 (81L).

For more information about the launch, click the button.

Launch to space Proton | Uragan 51 to 53
Proton | Uragan 51 to 53

Agency: N/A

Status: Launch Successful

Launch date: Feb. 17, 1993, 8:09 p.m. UTC

Rocket: Proton

Launch pad: 81/23 (81L)

Location: Baikonur Cosmodrome, Republic of Kazakhstan

...

Latest news about this satellite

There are no fresh news available about this satellite. Check back as we update our databases every day.


Newsletter sign-up

Weekly statistics, charts and insights to help you stay on top of the space industry.